Location: Cahas Mountain Overlook
(37.0833°N, 80.1000°W)
Time: 09:03:35
(UTC-05:00)

S-56A Canister/Altair - Pass Details

Date: 03 December 2023
Orbit: 640 x 2488 km, 38.9° (Epoch: 25 February)

Event Time Altitude Azimuth Distance (km) Brightness Sun altitude
Rises 19:38:28 0° 271° (W) 3,676 12.2 -30.3°
Reaches altitude 10° 19:41:59 10° 250° (WSW) 3,015 11.4 -31.0°
Maximum altitude 19:46:15 16° 214° (SW) 2,926 10.8 -31.9°
Drops below altitude 10° 19:51:26 10° 181° (S) 3,801 11.1 -32.9°
Sets 19:56:53 0° 163° (SSE) 5,202 11.7 -34.0°
